Location: Acton
(51.4942°N, 0.2232°W)
Time: 17:28:53
(UTC+00:00)

Cosmos 1707 - Pass Details

Date: 18 September 2020
Orbit: 515 x 530 km, 82.5° (Epoch: 30 October)

Event Time Altitude Azimuth Distance (km) Brightness Sun altitude
Rises 19:14:28 0° 350° (N) 2,658 6.7 -11.1°
Reaches altitude 10° 19:16:37 10° 351° (N) 1,763 5.7 -11.4°
Maximum altitude 19:20:29 81° 78° (ENE) 531 2.6 -12.0°
Drops below altitude 10° 19:24:19 10° 168° (SSE) 1,742 5.1 -12.5°
Enters shadow 19:25:50 - 169° (SSE) 2,377 5.8 -12.8°
